TimeCDT,TemperatureF,Dew PointF,Humidity,Sea Level PressureIn,VisibilityMPH,Wind Direction,Wind SpeedMPH,Gust SpeedMPH,PrecipitationIn,Events,Conditions,WindDirDegrees,DateUTC
12:15 AM,66.2,64.4,94,29.59,4.0,West,15.0,-,N/A,,Overcast,260,2012-10-14 05:15:00
12:35 AM,66.2,64.4,94,29.61,5.0,NNW,10.4,-,N/A,,Overcast,340,2012-10-14 05:35:00
12:55 AM,60.8,57.2,88,29.61,5.0,NNE,20.7,-,N/A,Rain,Light Rain,20,2012-10-14 05:55:00
1:15 AM,60.8,57.2,88,29.60,3.0,NNE,13.8,27.6,N/A,Rain,Rain,30,2012-10-14 06:15:00
1:35 AM,59.0,57.2,94,29.62,7.0,NNE,13.8,19.6,N/A,Rain,Light Rain,30,2012-10-14 06:35:00
1:55 AM,59.0,55.4,88,29.64,5.0,NNE,13.8,20.7,N/A,Rain,Light Rain,30,2012-10-14 06:55:00
2:15 AM,59.0,55.4,88,29.65,6.0,NE,9.2,-,N/A,Rain,Light Rain,40,2012-10-14 07:15:00
2:35 AM,59.0,55.4,88,29.65,6.0,NE,10.4,-,N/A,Rain,Light Rain,50,2012-10-14 07:35:00
2:55 AM,57.2,55.4,94,29.65,6.0,NNE,11.5,19.6,N/A,Rain,Light Rain,20,2012-10-14 07:55:00
3:15 AM,57.2,55.4,94,29.67,6.0,NNE,11.5,19.6,N/A,Rain,Light Rain,20,2012-10-14 08:15:00
3:35 AM,57.2,53.6,88,29.68,5.0,North,15.0,-,N/A,Rain,Light Rain,10,2012-10-14 08:35:00
3:55 AM,55.4,53.6,94,29.67,2.5,NNE,10.4,19.6,0.02,Rain,Rain,20,2012-10-14 08:55:00
4:15 AM,53.6,51.8,94,29.66,2.5,NE,10.4,17.3,N/A,Rain,Heavy Rain,40,2012-10-14 09:15:00
4:35 AM,53.6,51.8,94,29.67,4.0,North,15.0,-,N/A,Rain,Light Rain,360,2012-10-14 09:35:00
4:55 AM,53.6,50.0,88,29.68,6.0,North,8.1,18.4,0.06,,Overcast,10,2012-10-14 09:55:00
5:15 AM,51.8,50.0,94,29.69,7.0,North,11.5,17.3,N/A,,Overcast,10,2012-10-14 10:15:00
5:35 AM,51.8,50.0,94,29.70,6.0,North,12.7,20.7,N/A,,Overcast,10,2012-10-14 10:35:00
5:55 AM,51.8,50.0,94,29.71,6.0,North,12.7,-,0.01,,Overcast,360,2012-10-14 10:55:00
6:15 AM,51.8,48.2,88,29.71,6.0,North,13.8,21.9,N/A,,Mostly Cloudy,360,2012-10-14 11:15:00
6:35 AM,51.8,48.2,88,29.72,7.0,NNW,12.7,-,N/A,,Overcast,330,2012-10-14 11:35:00
6:55 AM,50.0,48.2,94,29.72,6.0,NNW,16.1,24.2,N/A,,Mostly Cloudy,330,2012-10-14 11:55:00
7:15 AM,50.0,48.2,94,29.74,5.0,NW,16.1,26.5,N/A,,Scattered Clouds,320,2012-10-14 12:15:00
7:35 AM,50.0,46.4,87,29.74,4.0,NNW,15.0,24.2,N/A,,Partly Cloudy,330,2012-10-14 12:35:00
7:55 AM,50.0,48.2,94,29.75,3.0,NNW,12.7,21.9,N/A,,Scattered Clouds,340,2012-10-14 12:55:00
8:15 AM,50.0,48.2,94,29.76,4.0,NNW,17.3,24.2,N/A,,Mostly Cloudy,340,2012-10-14 13:15:00
8:35 AM,50.0,46.4,87,29.78,3.0,NW,12.7,18.4,N/A,,Overcast,310,2012-10-14 13:35:00
8:55 AM,46.4,44.6,93,29.79,5.0,NNW,11.5,23.0,N/A,,Overcast,330,2012-10-14 13:55:00
9:15 AM,46.4,41.0,81,29.81,9.0,NW,15.0,21.9,N/A,,Scattered Clouds,320,2012-10-14 14:15:00
9:35 AM,46.4,39.2,76,29.81,10.0,NW,16.1,21.9,N/A,,Clear,320,2012-10-14 14:35:00
9:55 AM,48.2,41.0,76,29.82,10.0,NW,17.3,27.6,N/A,,Clear,320,2012-10-14 14:55:00
10:15 AM,46.4,39.2,76,29.83,10.0,NW,15.0,25.3,N/A,,Clear,320,2012-10-14 15:15:00
10:35 AM,50.0,41.0,71,29.83,10.0,NNW,17.3,26.5,N/A,,Clear,330,2012-10-14 15:35:00
10:55 AM,48.2,39.2,71,29.84,10.0,NW,19.6,27.6,N/A,,Clear,320,2012-10-14 15:55:00
11:15 AM,51.8,39.2,62,29.84,10.0,NNW,23.0,31.1,N/A,,Clear,330,2012-10-14 16:15:00
11:35 AM,51.8,37.4,58,29.86,10.0,NNW,19.6,28.8,N/A,,Clear,330,2012-10-14 16:35:00
11:55 AM,53.6,37.4,54,29.86,10.0,NNW,21.9,31.1,N/A,,Clear,330,2012-10-14 16:55:00
12:15 PM,55.4,37.4,51,29.87,10.0,NNW,16.1,28.8,N/A,,Clear,330,2012-10-14 17:15:00
12:35 PM,57.2,37.4,48,29.87,10.0,NNW,23.0,29.9,N/A,,Clear,330,2012-10-14 17:35:00
12:55 PM,59.0,37.4,45,29.87,10.0,NNW,18.4,26.5,N/A,,Clear,330,2012-10-14 17:55:00
1:15 PM,59.0,37.4,45,29.87,10.0,NNW,20.7,26.5,N/A,,Clear,330,2012-10-14 18:15:00
1:35 PM,60.8,37.4,42,29.87,10.0,NNW,21.9,28.8,N/A,,Clear,330,2012-10-14 18:35:00
1:55 PM,60.8,37.4,42,29.87,10.0,NNW,18.4,27.6,N/A,,Clear,330,2012-10-14 18:55:00
2:15 PM,62.6,37.4,39,29.87,10.0,NW,21.9,29.9,N/A,,Clear,320,2012-10-14 19:15:00
2:55 PM,62.6,37.4,39,29.88,10.0,NW,21.9,29.9,N/A,,Clear,320,2012-10-14 19:55:00
3:15 PM,62.6,37.4,39,29.89,10.0,NNW,19.6,28.8,N/A,,Clear,340,2012-10-14 20:15:00
3:35 PM,62.6,37.4,39,29.89,10.0,NW,19.6,32.2,N/A,,Clear,320,2012-10-14 20:35:00
3:55 PM,62.6,37.4,39,29.89,10.0,NW,20.7,27.6,N/A,,Clear,310,2012-10-14 20:55:00
4:15 PM,64.4,35.6,34,29.90,10.0,NNW,16.1,24.2,N/A,,Clear,330,2012-10-14 21:15:00
4:35 PM,62.6,35.6,37,29.90,10.0,NW,18.4,24.2,N/A,,Clear,320,2012-10-14 21:35:00
4:55 PM,62.6,35.6,37,29.90,10.0,NW,15.0,25.3,N/A,,Clear,310,2012-10-14 21:55:00
5:15 PM,62.6,35.6,37,29.90,10.0,NW,12.7,-,N/A,,Clear,320,2012-10-14 22:15:00
5:35 PM,62.6,35.6,37,29.90,10.0,NW,15.0,-,N/A,,Clear,310,2012-10-14 22:35:00
5:55 PM,62.6,35.6,37,29.91,10.0,NW,12.7,-,N/A,,Clear,310,2012-10-14 22:55:00
6:15 PM,60.8,35.6,39,29.91,10.0,NW,10.4,-,N/A,,Clear,310,2012-10-14 23:15:00
6:35 PM,59.0,35.6,42,29.92,10.0,NW,8.1,-,N/A,,Clear,320,2012-10-14 23:35:00
6:55 PM,57.2,37.4,48,29.92,10.0,WNW,8.1,13.8,N/A,,Clear,300,2012-10-14 23:55:00
7:15 PM,55.4,37.4,51,29.93,-9999.0,WNW,6.9,-,N/A,,Clear,300,2012-10-15 00:15:00
7:35 PM,53.6,35.6,51,29.93,10.0,West,4.6,-,N/A,,Clear,270,2012-10-15 00:35:00
7:55 PM,53.6,35.6,51,29.94,10.0,West,4.6,-,N/A,,Clear,270,2012-10-15 00:55:00
8:15 PM,53.6,35.6,51,29.94,10.0,WNW,4.6,-,N/A,,Clear,290,2012-10-15 01:15:00
8:35 PM,51.8,35.6,54,29.94,10.0,Calm,Calm,-,N/A,,Clear,0,2012-10-15 01:35:00
8:55 PM,50.0,37.4,62,29.95,10.0,Calm,Calm,-,N/A,,Clear,0,2012-10-15 01:55:00
9:15 PM,48.2,37.4,66,29.96,10.0,Calm,Calm,-,N/A,,Clear,0,2012-10-15 02:15:00
9:35 PM,48.2,37.4,66,29.96,10.0,Calm,Calm,-,N/A,,Clear,0,2012-10-15 02:35:00
9:55 PM,48.2,37.4,66,29.96,10.0,Calm,Calm,-,N/A,,Clear,0,2012-10-15 02:55:00
10:15 PM,46.4,35.6,66,29.96,10.0,Calm,Calm,-,N/A,,Partly Cloudy,0,2012-10-15 03:15:00
10:35 PM,46.4,35.6,66,29.96,10.0,Calm,Calm,-,N/A,,Mostly Cloudy,0,2012-10-15 03:35:00
10:55 PM,46.4,35.6,66,29.96,10.0,Calm,Calm,-,N/A,,Scattered Clouds,0,2012-10-15 03:55:00
11:15 PM,48.2,35.6,62,29.96,10.0,Variable,4.6,-,N/A,,Clear,0,2012-10-15 04:15:00
11:35 PM,48.2,35.6,62,29.96,10.0,Calm,Calm,-,N/A,,Clear,0,2012-10-15 04:35:00
11:55 PM,42.8,35.6,76,29.97,10.0,WSW,3.5,-,N/A,,Clear,250,2012-10-15 04:55:00